GSAT0102 (GALILEO-FM2)

Last updated on Wed Nov 20 2024 00:02:29 GMT+0000 (Coordinated Universal Time)

1 37847U 11060B 24324.50673464 -.00000095 00000+0 00000+0 0 9990 2 37847 57.1215 357.3334 0004047 299.7984 59.6556 1.70475252 81326
UTC large
Height (km)
Speed (km/s)
/
Latitude / Longitude
Inclination (degrees)
Orbital Period (minutes)
Azimuth
Elevation
Range (km)
Doppler Factor

Next 0 passes for location: London (51.5072 / 0.1276)

Sorry there are no passes over London.